STARLINK-32001 (60110 NORAD) Tracking and Keplerian Element Data

This shows tracking and keplerian element data for the satellite.

Feedback or suggestion? Click here.




ElementValue
Catalog60110
NameSTARLINK-32001
Epoch Orbit1834
Epoch Day286.6646223
Epoch Year2024
RAAN259.8153
Inclination53.1591
Eccentricity9.35E-05
Argument of Perigee202.6299
Mean Anonmoly157.4661
Mean Motion15.30197085
Decay Rate0.00097722
L11 60110U 24117V 24286.66462230 .00097722 00000+0 32687-2 0 9998
L22 60110 53.1591 259.8153 0000935 202.6299 157.4661 15.30197085 18349



Live tracking and technical data element details for STARLINK-32001 (NORAD 60110). STARLINK-32001 can be tracked NOW for your location showing map with azimuth and elevation plus other details from your city location.







IsCatalogInMostPopularTable: catalog: 60110, numindb: 8
Update: records affected: 1



GetName: 60110 STARLINK-32001

Hit Count: updated at: Thu, 23 Jan 2025 14:46:39 GMT